Location: Kelshall
(52.0000°N, 0.0500°W)
Time: 02:11:01
(UTC+00:00)

NOSS 3-4 (C) - Pass Details

Date: 18 September 2020
Orbit: 886 x 1326 km, 63.4° (Epoch: 27 October)

Event Time Altitude Azimuth Distance (km) Brightness Sun altitude
Exits shadow 22:41:39 51° 11° (N) 1,199 4.1 -34.5°
Drops below altitude 10° 22:46:53 10° 45° (NE) 2,824 6.1 -34.8°
Sets 22:49:41 0° 49° (NE) 3,845 6.9 -34.9°
